Glen Ullin, ND

8:38 PM CST on February 23, 2017 (GMT -0600)
Glen Ullin Rgnl, Glen Ullin,

Weather History for KD57 - January, 2014

Change the Weather History Date:

Sunday, January 26, 2014

  Actual Average (KDIK) Record (KDIK)
Temperature  
Mean Temperature 16 °F -  
Max Temperature 37 °F 22 °F 52 °F (2015)
Min Temperature -7 °F 5 °F -35 °F (1950)
Degree Days  
Heating Degree Days 49    
Moisture  
Dew Point 1 °F    
Average Humidity 64    
Maximum Humidity 87    
Minimum Humidity 47    
Precipitation  
Precipitation 0.00 in - - ()
Sea Level Pressure  
Sea Level Pressure 29.92 in    
Wind  
Wind Speed 26 mph (NW)    
Max Wind Speed 44 mph    
Max Gust Speed 58 mph    
Visibility 8 miles    
Events Rain , Snow , Thunderstorm    
Averages and records for this station are not official NWS values.
T = Trace of Precipitation, MM = Missing Value Source: NWS Daily Summary

Daily Weather History Graph

Daily Weather History Graph

Search for Another Location

Airport or City:

Trip Planner

Search our weather history database for the weather conditions in past years. The results will help you decide how hot, cold, wet, or windy it might be!

Date:

Astronomy

Jan. 26, 2014 Rise Set
Actual Time 7:18 AM MST 4:41 PM MST
Civil Twilight 6:45 AM MST 5:14 PM MST
Nautical Twilight 6:08 AM MST 5:51 PM MST
Astronomical Twilight 5:33 AM MST 6:27 PM MST
Moon 2:59 AM MST (1/26) 12:31 PM MST (1/26)
Length of Visible Light 10h 29m
Length of Day
9h 23m
Waning Crescent, 23% of the Moon is Illuminated
Jan 26
Waning Crescent
Jan 30
New
Feb 6
First Quarter
Feb 14
Full
Feb 22
Last Quarter

Hourly Weather History & Observations

Time (MST) Temp. Windchill Dew Point Humidity Pressure Visibility Wind Dir Wind Speed Gust Speed Precip Events Conditions
12:15 AM 33.8 °F 21.0 °F 28.4 °F 81% 29.58 in 10.0 mi NW 25.3 mph 36.8 mph N/A   Overcast
12:35 AM 33.8 °F 22.8 °F 28.4 °F 81% 29.58 in 10.0 mi NW 18.4 mph 26.5 mph N/A   Overcast
12:55 AM 33.8 °F 22.8 °F 28.4 °F 81% 29.58 in 10.0 mi NW 18.4 mph - N/A   Overcast
1:15 AM 33.8 °F 23.9 °F 28.4 °F 81% 29.57 in 10.0 mi NW 15.0 mph 24.2 mph N/A   Overcast
1:35 AM 33.8 °F 23.2 °F 30.2 °F 87% 29.57 in 5.0 mi NW 17.3 mph 24.2 mph N/A   Overcast
1:55 AM 33.8 °F 23.5 °F 30.2 °F 87% 29.57 in 10.0 mi NW 16.1 mph - N/A   Overcast
2:15 AM 35.6 °F 23.2 °F 30.2 °F 81% 29.56 in 10.0 mi WNW 26.5 mph 33.4 mph N/A   Overcast
2:35 AM 35.6 °F 23.2 °F 26.6 °F 70% 29.55 in 10.0 mi NW 26.5 mph 35.7 mph N/A   Mostly Cloudy
2:55 AM 35.6 °F 24.0 °F 26.6 °F 70% 29.54 in 10.0 mi NW 23.0 mph 34.5 mph N/A   Overcast
3:15 AM 35.6 °F 24.0 °F 28.4 °F 75% 29.52 in 10.0 mi WNW 23.0 mph 34.5 mph N/A   Overcast
3:35 AM 35.6 °F 25.9 °F 28.4 °F 75% 29.51 in 10.0 mi WNW 16.1 mph 24.2 mph N/A   Overcast
3:55 AM 35.6 °F 25.5 °F 28.4 °F 75% 29.49 in 10.0 mi WNW 17.3 mph 25.3 mph N/A   Overcast
4:15 AM 35.6 °F 26.2 °F 28.4 °F 75% 29.47 in 10.0 mi WNW 15.0 mph 25.3 mph N/A   Overcast
4:35 AM 35.6 °F 25.2 °F 28.4 °F 75% 29.46 in 10.0 mi WNW 18.4 mph 26.5 mph N/A   Overcast
4:55 AM 35.6 °F 23.7 °F 28.4 °F 75% 29.43 in 10.0 mi West 24.2 mph 35.7 mph N/A   Overcast
5:15 AM 35.6 °F 23.7 °F 28.4 °F 75% 29.42 in 10.0 mi West 24.2 mph 39.1 mph N/A   Overcast
5:35 AM 37.4 °F 24.2 °F 28.4 °F 70% 29.41 in 10.0 mi WNW 34.5 mph 43.7 mph N/A   Overcast
5:55 AM 33.8 °F - 26.6 °F 75% 29.47 in 0.5 mi North - - N/A   Overcast
6:15 AM 21.2 °F 1.4 °F 17.6 °F 86% 29.53 in 0.8 mi North 36.8 mph 50.6 mph N/A Snow , Thunderstorm Snow
6:35 AM 21.2 °F 3.9 °F 15.8 °F 80% 29.57 in 1.2 mi North 26.5 mph 40.3 mph N/A Snow Light Snow
6:55 AM 21.2 °F 5.2 °F 15.8 °F 80% 29.60 in 3.0 mi North 21.9 mph 28.8 mph N/A Snow Light Snow
7:15 AM 21.2 °F 4.9 °F 15.8 °F 80% 29.61 in 1.2 mi NNW 23.0 mph 28.8 mph N/A Snow Light Snow
7:35 AM 19.4 °F 0.8 °F 14.0 °F 80% 29.61 in 2.5 mi NNW 28.8 mph 36.8 mph N/A Snow Light Snow
7:55 AM 19.4 °F -1.6 °F 10.4 °F 68% 29.64 in 5.0 mi NNW 39.1 mph 47.2 mph N/A Snow Light Snow
8:15 AM 12.2 °F -11.6 °F -0.4 °F 57% 29.68 in 9.0 mi North 39.1 mph 54.1 mph N/A   Light Freezing Rain
8:35 AM 12.2 °F -8.9 °F 1.4 °F 62% 29.71 in 10.0 mi NNW 28.8 mph 43.7 mph N/A   Light Freezing Rain
8:55 AM 12.2 °F -10.5 °F 3.2 °F 67% 29.74 in 3.0 mi NNW 34.5 mph 44.9 mph N/A Rain Light Freezing Rain
9:15 AM 10.4 °F -10.3 °F 1.4 °F 67% 29.76 in 5.0 mi North 25.3 mph 38.0 mph N/A Snow Light Snow
9:35 AM 10.4 °F -10.7 °F 1.4 °F 67% 29.78 in 9.0 mi NNW 26.5 mph 39.1 mph N/A   Light Freezing Rain
9:55 AM 10.4 °F -10.7 °F 5.0 °F 79% 29.82 in 0.2 mi NNW 26.5 mph 34.5 mph N/A Snow Snow
10:15 AM 10.4 °F -14.3 °F -2.2 °F 57% 29.85 in 2.0 mi NW 40.3 mph 50.6 mph N/A   Light Freezing Rain
10:35 AM 10.4 °F -11.7 °F -2.2 °F 57% 29.87 in 3.0 mi NNW 29.9 mph 51.8 mph N/A   Light Freezing Rain
10:55 AM 8.6 °F -16.3 °F -4.0 °F 57% 29.89 in 2.0 mi NW 38.0 mph 55.2 mph N/A Rain Light Freezing Rain
11:15 AM 6.8 °F -17.3 °F -0.4 °F 72% 29.92 in 0.2 mi NNW 32.2 mph 46.0 mph N/A Snow Snow
11:35 AM 6.8 °F -19.9 °F -7.6 °F 52% 29.94 in 0.8 mi NNW 42.6 mph 56.4 mph N/A   Light Freezing Rain
11:55 AM 5.0 °F -22.7 °F -7.6 °F 56% 29.95 in 5.0 mi NNW 43.7 mph 57.5 mph N/A   Light Freezing Rain
12:15 PM 3.2 °F -24.4 °F -11.2 °F 51% 29.98 in 10.0 mi NNW 40.3 mph 54.1 mph N/A   Light Freezing Rain
12:35 PM 3.2 °F -24.1 °F -7.6 °F 61% 30.00 in 7.0 mi NNW 39.1 mph 50.6 mph N/A   Mostly Cloudy
12:55 PM 3.2 °F -23.8 °F -7.6 °F 61% 30.01 in 3.0 mi NNW 38.0 mph 47.2 mph N/A Rain Light Freezing Rain
1:15 PM 3.2 °F -24.1 °F -13.0 °F 47% 30.03 in 8.0 mi NNW 39.1 mph 51.8 mph N/A   Light Freezing Rain
1:35 PM 3.2 °F -22.5 °F -11.2 °F 51% 30.05 in 10.0 mi NW 33.4 mph 47.2 mph N/A   Mostly Cloudy
1:55 PM 1.4 °F -26.0 °F -13.0 °F 51% 30.07 in 9.0 mi NNW 36.8 mph 48.3 mph N/A   Mostly Cloudy
2:15 PM 1.4 °F -25.3 °F -13.0 °F 51% 30.10 in 7.0 mi NW 34.5 mph 46.0 mph N/A   Mostly Cloudy
2:35 PM -0.4 °F -29.4 °F -14.8 °F 51% 30.12 in 9.0 mi NW 40.3 mph 50.6 mph N/A   Mostly Cloudy
2:55 PM -0.4 °F -27.8 °F -14.8 °F 51% 30.14 in 10.0 mi NW 34.5 mph 46.0 mph N/A   Mostly Cloudy
3:15 PM -0.4 °F -26.7 °F -14.8 °F 51% 30.16 in 9.0 mi NW 31.1 mph 43.7 mph N/A   Mostly Cloudy
3:35 PM -0.4 °F -27.8 °F -14.8 °F 51% 30.17 in 10.0 mi NW 34.5 mph 47.2 mph N/A   Mostly Cloudy
3:55 PM -2.2 °F -29.2 °F -14.8 °F 55% 30.18 in 10.0 mi NW 31.1 mph 40.3 mph N/A   Mostly Cloudy
4:15 PM -2.2 °F -29.6 °F -14.8 °F 55% 30.19 in 10.0 mi NNW 32.2 mph 42.6 mph N/A   Mostly Cloudy
4:35 PM -2.2 °F -29.2 °F -14.8 °F 55% 30.20 in 10.0 mi NW 31.1 mph 42.6 mph N/A   Mostly Cloudy
4:55 PM -2.2 °F -28.4 °F -16.6 °F 50% 30.21 in 10.0 mi NNW 28.8 mph 40.3 mph N/A   Mostly Cloudy
5:15 PM -2.2 °F -27.6 °F -14.8 °F 55% 30.22 in 10.0 mi NW 26.5 mph 38.0 mph N/A   Mostly Cloudy
5:35 PM -2.2 °F -26.7 °F -14.8 °F 55% 30.23 in 10.0 mi NW 24.2 mph 35.7 mph N/A   Mostly Cloudy
5:55 PM -2.2 °F -28.4 °F -16.6 °F 50% 30.25 in 10.0 mi NW 28.8 mph 39.1 mph N/A   Overcast
6:15 PM -2.2 °F -28.4 °F -14.8 °F 55% 30.25 in 10.0 mi NW 28.8 mph 35.7 mph N/A   Overcast
6:35 PM -4.0 °F -30.0 °F -14.8 °F 60% 30.26 in 10.0 mi NW 26.5 mph 38.0 mph N/A   Mostly Cloudy
6:55 PM -4.0 °F -32.0 °F -16.6 °F 55% 30.28 in 10.0 mi NW 32.2 mph 38.0 mph N/A   Overcast
7:15 PM -4.0 °F -30.4 °F -16.6 °F 55% 30.28 in 10.0 mi NW 27.6 mph 36.8 mph N/A   Overcast
7:35 PM -4.0 °F -30.9 °F -16.6 °F 55% 30.26 in 10.0 mi NW 28.8 mph 38.0 mph N/A   Mostly Cloudy
7:55 PM -4.0 °F -30.4 °F -16.6 °F 55% 30.28 in 10.0 mi NW 27.6 mph 39.1 mph N/A   Mostly Cloudy
8:15 PM -4.0 °F -30.4 °F -16.6 °F 55% 30.29 in 10.0 mi NW 27.6 mph 36.8 mph N/A   Mostly Cloudy
8:35 PM -4.0 °F -30.4 °F -16.6 °F 55% 30.29 in 10.0 mi NW 27.6 mph 33.4 mph N/A   Mostly Cloudy
8:55 PM -4.0 °F -29.1 °F -16.6 °F 55% 30.29 in 10.0 mi NW 24.2 mph 31.1 mph N/A   Mostly Cloudy
9:15 PM -5.8 °F -32.4 °F -16.6 °F 60% 30.29 in 10.0 mi NW 26.5 mph 34.5 mph N/A   Scattered Clouds
9:35 PM -5.8 °F -31.0 °F -16.6 °F 60% 30.30 in 10.0 mi NW 23.0 mph 33.4 mph N/A   Partly Cloudy
9:55 PM -5.8 °F -31.0 °F -16.6 °F 60% 30.31 in 10.0 mi NW 23.0 mph 31.1 mph N/A   Scattered Clouds
10:15 PM -5.8 °F -29.9 °F -16.6 °F 60% 30.31 in 10.0 mi NW 20.7 mph 27.6 mph N/A   Scattered Clouds
10:35 PM -5.8 °F -30.5 °F -16.6 °F 60% 30.31 in 10.0 mi NW 21.9 mph 31.1 mph N/A   Partly Cloudy
10:55 PM -5.8 °F -31.5 °F -16.6 °F 60% 30.31 in 10.0 mi NW 24.2 mph 31.1 mph N/A   Partly Cloudy
11:15 PM -5.8 °F -31.5 °F -18.4 °F 55% 30.32 in 10.0 mi NW 24.2 mph 31.1 mph N/A   Clear
11:35 PM -5.8 °F -31.5 °F -16.6 °F 60% 30.32 in 10.0 mi NW 24.2 mph - N/A   Clear
11:55 PM -7.6 °F -30.5 °F -16.6 °F 65% 30.32 in 10.0 mi NW 17.3 mph 24.2 mph N/A   Clear